This demonstration page uses our WeatherBlox Daily Observations layout. Learn more.

Hourly Observations for July 27, 2015

Temp ( °F °C ) Dew Point ( °F °C ) Humidity (%) Winds ( mph kmh ) Pressure ( in mb ) Visibility ( mi km ) Precip ( " mm )
12:15 am 00:15 Cloudy 69 20.5 65 18.2 87 87 NW 6 9 29.94 1014 10 16.0934 0.02 0.508
12:35 am 00:35 Cloudy with Thunderstorms 69 20.7 64 18 85 85 W 5 7 29.91 1013 10 16.0934 0.03 0.762
12:55 am 00:55 Cloudy with Rain 71 21.5 63 17.2 77 77 SW 5 7 29.85 1011 10 16.0934 0.06 1.524
1:15 am 01:15 Mostly Cloudy with Light Rain 69 20.7 64 18 85 85 SSW 6 9 29.83 1010 10 16.0934 0.01 0.254
1:35 am 01:35 Partly Cloudy with Light Rain 70 21.2 64 17.5 80 80 SSE 8 13 29.8 1009 10 16.0934 0.01 0.254
1:55 am 01:55 Clear with Light Rain 74 23.2 60 15.6 62 62 WNW 6 9 29.77 1008 10 16.0934 0.01 0.254
2:15 am 02:15 Clear 71 21.9 62 16.7 72 72 WSW 9 15 29.83 1010 10 16.0934 0 0
2:35 am 02:35 Clear 72 22.4 61 16.1 68 68 W 5 7 29.77 1008 10 16.0934 0 0
2:55 am 02:55 Clear 70 21 63 17.3 80 80 Calm 29.83 1010 10 16.0934 0 0
3:15 am 03:15 Clear 72 22 62 16.5 71 71 Calm 29.83 1010 10 16.0934 0 0
3:35 am 03:35 Clear 72 22 62 16.6 72 72 WSW 3 6 29.83 1010 10 16.0934 0 0
3:55 am 03:55 Clear 72 22.2 61 16.2 69 69 SSW 5 7 29.83 1010 10 16.0934 0 0
4:15 am 04:15 Clear 72 22 62 16.4 71 71 S 6 9 29.83 1010 10 16.0934 0 0
4:35 am 04:35 Clear 71 21.5 62 16.5 73 73 SSW 6 9 29.77 1008 10 16.0934 0 0
4:55 am 04:55 Clear 70 21 62 16.9 78 78 SSW 5 7 29.8 1009 10 16.0934 0 0
5:15 am 05:15 Clear 70 21 63 17.1 79 79 SSW 5 7 29.8 1009 10 16.0934 0 0
5:35 am 05:35 Partly Cloudy 69 20.8 64 17.5 82 82 SSW 3 6 29.8 1009 10 16.0934 0 0
5:55 am 05:55 Mostly Cloudy 70 21 64 17.5 81 81 S 3 6 29.77 1008 10 16.0934 0 0
6:15 am 06:15 Mostly Cloudy 69 20.6 64 17.7 84 84 SE 5 7 29.8 1009 10 16.0934 0 0
6:35 am 06:35 Partly Cloudy 69 20.4 64 17.8 85 85 S 7 11 29.8 1009 10 16.0934 0 0
6:55 am 06:55 Partly Cloudy 70 21.3 64 17.5 79 79 S 5 7 29.8 1009 10 16.0934 0 0
7:15 am 07:15 Sunny 68 20 64 17.8 87 87 ESE 3 6 29.83 1010 10 16.0934 0 0
7:35 am 07:35 Sunny 69 20.5 64 17.9 85 85 Calm 29.83 1010 10 16.0934 0 0
7:55 am 07:55 Sunny 69 20.3 64 18 87 87 SSE 3 6 29.83 1010 10 16.0934 0 0
8:15 am 08:15 Partly Cloudy 70 21.2 65 18.4 84 84 SE 3 6 29.83 1010 10 16.0934 0 0
8:35 am 08:35 Partly Cloudy 72 22.3 65 18.1 77 77 SSW 3 6 29.83 1010 10 16.0934 0 0
8:55 am 08:55 Sunny 74 23.3 65 18.3 74 74 S 6 9 29.8 1009 10 16.0934 0 0
9:15 am 09:15 Sunny 75 24 65 18.3 71 71 S 3 6 29.8 1009 10 16.0934 0 0
9:35 am 09:35 Sunny 77 24.8 65 18.4 68 68 SSE 3 6 29.8 1009 10 16.0934 0 0
9:55 am 09:55 Sunny 77 25 65 18.3 66 66 SSE 5 7 29.8 1009 10 16.0934 0 0
10:15 am 10:15 Partly Cloudy 78 25.3 64 18 64 64 SSE 5 7 29.8 1009 10 16.0934 0 0
10:35 am 10:35 Sunny 79 26.1 65 18.1 61 61 SSE 6 9 29.77 1008 10 16.0934 0 0
10:55 am 10:55 Sunny 79 26 64 17.9 61 61 SSE 5 7 29.77 1008 10 16.0934 0 0
11:15 am 11:15 Sunny 80 26.5 66 18.7 62 62 SE 6 9 29.77 1008 10 16.0934 0 0
11:35 am 11:35 Sunny 81 27.4 66 18.9 60 60 SSE 8 13 29.77 1008 10 16.0934 0 0
11:55 am 11:55 Sunny 81 27.4 66 18.7 59 59 SSE 10 17 29.77 1008 10 16.0934 0 0
12:15 pm 12:15 Sunny 82 27.8 66 19.1 59 59 SSE 9 15 29.74 1007 10 16.0934 0 0
12:35 pm 12:35 Sunny 83 28.3 67 19.7 60 60 SE 10 17 29.74 1007 10 16.0934 0 0
12:55 pm 12:55 Sunny 84 28.8 67 19.6 58 58 SSE 9 15 29.74 1007 10 16.0934 0 0
1:15 pm 13:15 Sunny 84 29.1 68 19.8 57 57 SSE 10 17 29.74 1007 10 16.0934 0 0
1:35 pm 13:35 Sunny 85 29.7 68 20 56 56 SSE 13 20 29.71 1006 10 16.0934 0 0
1:55 pm 13:55 Sunny 87 30.4 68 19.9 53 53 SSE 15 24 29.71 1006 10 16.0934 0 0
2:15 pm 14:15 Sunny 87 30.7 69 20.4 54 54 SSE 13 20 29.68 1005 10 16.0934 0 0
2:35 pm 14:35 Sunny 87 30.7 68 19.9 53 53 S 15 24 29.68 1005 10 16.0934 0 0
2:55 pm 14:55 Sunny 89 31.5 69 20.7 53 53 SE 16 26 29.68 1005 10 16.0934 0 0
3:15 pm 15:15 Sunny 89 31.4 68 20.2 51 51 S 15 24 29.68 1005 10 16.0934 0 0
3:35 pm 15:35 Sunny 89 31.6 69 20.3 51 51 SSE 15 24 29.65 1004 10 16.0934 0 0
3:55 pm 15:55 Sunny 90 32 70 20.9 52 52 SSE 15 24 29.65 1004 10 16.0934 0 0
4:15 pm 16:15 Sunny 90 32 71 21.4 53 53 SSE 17 28 29.65 1004 10 16.0934 0 0
4:35 pm 16:35 Sunny 90 32.1 70 21.2 53 53 SSE 15 24 29.65 1004 10 16.0934 0 0
4:55 pm 16:55 Sunny 90 32.3 70 21.3 52 52 SE 16 26 29.62 1003 10 16.0934 0 0
5:15 pm 17:15 Sunny 91 32.5 71 21.6 53 53 SSE 14 22 29.59 1002 10 16.0934 0 0
5:35 pm 17:35 Sunny 91 32.5 70 21.2 51 51 SSE 15 24 29.59 1002 10 16.0934 0 0
5:55 pm 17:55 Partly Cloudy 90 32 70 21 52 52 SSE 13 20 29.62 1003 10 16.0934 0 0
6:15 pm 18:15 Partly Cloudy 89 31.6 70 21 53 53 SSE 12 19 29.62 1003 10 16.0934 0 0
6:35 pm 18:35 Mostly Cloudy 88 31.2 70 21.1 55 55 SSE 13 20 29.62 1003 10 16.0934 0 0
6:55 pm 18:55 Mostly Cloudy 87 30.8 70 21 56 56 SSE 10 17 29.62 1003 10 16.0934 0 0
7:15 pm 19:15 Mostly Cloudy 87 30.6 70 20.9 56 56 SSE 12 19 29.62 1003 10 16.0934 0 0
7:35 pm 19:35 Cloudy 87 30.3 70 21 58 58 SSE 10 17 29.62 1003 10 16.0934 0 0
7:55 pm 19:55 Mostly Cloudy 86 30.1 69 20.7 57 57 SSE 10 17 29.62 1003 10 16.0934 0 0
8:15 pm 20:15 Partly Cloudy 85 29.5 70 21 60 60 SSE 13 20 29.62 1003 10 16.0934 0 0
8:35 pm 20:35 Sunny 84 29.1 69 20.5 60 60 SSE 12 19 29.62 1003 10 16.0934 0 0
8:55 pm 20:55 Sunny 83 28.6 68 19.9 59 59 SSE 10 17 29.62 1003 10 16.0934 0 0
9:15 pm 21:15 Clear 82 27.8 67 19.6 61 61 SSE 10 17 29.65 1004 10 16.0934 0 0
9:35 pm 21:35 Clear 81 27.3 67 19.3 62 62 SSE 8 13 29.65 1004 10 16.0934 0 0
9:55 pm 21:55 Clear 81 27 66 19 62 62 SSE 12 19 29.65 1004 10 16.0934 0 0
10:15 pm 22:15 Clear 80 26.6 66 18.8 62 62 SSE 10 17 29.65 1004 10 16.0934 0 0
10:35 pm 22:35 Clear 80 26.6 66 18.7 62 62 SSE 9 15 29.65 1004 10 16.0934 0 0
10:55 pm 22:55 Clear 79 26.2 65 18.5 63 63 SSE 9 15 29.65 1004 10 16.0934 0 0
11:15 pm 23:15 Clear 78 25.5 66 18.7 66 66 SSE 10 17 29.65 1004 10 16.0934 0 0
11:35 pm 23:35 Clear 78 25.6 65 18.5 65 65 SSE 10 17 29.65 1004 10 16.0934 0 0
11:55 pm 23:55 Clear 80 26.5 65 18.3 61 61 SSE 14 22 29.65 1004 10 16.0934 0 0

Powered by AerisWeather